Location: St. Louis
(38.6270°N, 90.1994°W)
Time: 14:07:38
(UTC-06:00)

Vanguard 1 - Pass Details

Date: 05 December 2021
Orbit: 652 x 3830 km, 34.2° (Epoch: 19 January)

Event Time Altitude Azimuth Distance (km) Brightness Sun altitude
Rises 23:24:44 0° 240° (WSW) 6,831 14.3 -72.9°
Enters shadow 23:26:50 - 239° (WSW) 6,456 14.2 -73.0°
Reaches altitude 10° 23:28:47 10° 238° (WSW) 6,121 - -73.2°
Maximum altitude 23:50:02 69° 160° (SSE) 3,997 - -73.9°
Exits shadow 00:08:04 20° 86° (E) 5,656 13.8 -73.5°
Drops below altitude 10° 00:11:50 10° 84° (E) 6,265 14.1 -73.3°
Sets 00:16:00 0° 82° (E) 6,991 14.5 -73.1°
